Hourly Data Report for October 01, 2014

All times are specified in Local Standard Time (LST). Add 1 hour to adjust for Daylight Saving Time where and when it is observed.

PENTICTON A
BRITISH COLUMBIA

49°27'45.000" N
119°36'08.000" W
344.40 m
1126146
71889
YYF

Download Data

Hourly Data (October 2014)
Hourly Data Report for October 1, 2014
Temp Definition
°C
Dew Point Temp Definition
°C
Rel Hum Definition
%
Wind Dir Definition
10's deg

Wind Spd Definition
km/h
Visibility Definition
km
Stn Press Definition
kPa
Hmdx Definition


Wind Chill Definition


Weather Definition


TIME
00:00 Legend Double Dagger 6.6 5.1 90 6 4 24.1 97.74     LegendNANA
01:00 Legend Double Dagger 6.5 5.0 90 7 4 24.1 97.74     Mostly Cloudy
02:00 Legend Double Dagger 7.6 6.1 90 36 2 24.1 97.78     LegendNANA
03:00 Legend Double Dagger 5.0 3.8 92 5 5 24.1 97.79     LegendNANA
04:00 Legend Double Dagger 4.4 3.2 92 36 2 24.1 97.82     Mainly Clear
05:00 Legend Double Dagger 3.5 2.5 93 1 4 24.1 97.82     LegendNANA
06:00 Legend Double Dagger 3.4 2.2 92 20 4 24.1 97.84     LegendNANA
07:00 Legend Double Dagger 5.3 4.1 92 11 3 24.1 97.87     Mainly Clear
08:00 Legend Double Dagger 10.3 6.7 78 17 15 24.1 97.85     LegendNANA
09:00 Legend Double Dagger 12.4 5.8 64 20 14 24.1 97.81     LegendNANA
10:00 Legend Double Dagger 14.2 7.3 63 18 13 24.1 97.76     Mainly Clear
11:00 Legend Double Dagger 15.9 5.3 49 10 8 24.1 97.66     LegendNANA
12:00 Legend Double Dagger 17.7 3.7 39 14 6 24.1 97.56     LegendNANA
13:00 Legend Double Dagger 18.8 4.7 39 16 14 24.1 97.50     Mostly Cloudy
14:00 Legend Double Dagger 17.7 5.1 43 19 10 24.1 97.45     LegendNANA
15:00 Legend Double Dagger 18.4 3.6 37 27 4 24.1 97.39     LegendNANA
16:00 Legend Double Dagger 19.4 1.1 29 22 20 24.1 97.38     Mostly Cloudy
17:00 Legend Double Dagger 17.8 1.0 32 28 27 24.1 97.43     LegendNANA
18:00 Legend Double Dagger 15.3 1.9 40 5 13 24.1 97.46     LegendNANA
19:00 Legend Double Dagger 14.6 1.2 40 13 7 24.1 97.51     Mostly Cloudy
20:00 Legend Double Dagger 10.1 1.8 56 32 7 24.1 97.56     LegendNANA
21:00 Legend Double Dagger 11.0 1.8 53 10 7 24.1 97.63     LegendNANA
22:00 Legend Double Dagger 12.3 1.4 47 34 17 24.1 97.76     Mostly Cloudy
23:00 Legend Double Dagger 13.6 1.3 43 2 16 24.1 97.83     LegendNANA

Notes on Data Quality.

Legend

  • E = Estimated
  • M = Missing
  • NA = Not Available
  • ‡ = Partner data that is not subject to review by the National Climate Archives
Date modified: